User: anonymous   Login
Location: ????????
(55.0808°N, 38.5463°E)
Time: 20:10:49
(UTC+00:00)
Language:

ADEOS II - Orbit

View from above orbital plane
View from above orbital plane
View from above satellite
View from above satellite

Ground track
Ground track

The orbit data is extracted from the following two-line orbital elements,

1 27597U 02056A   24171.83959446  .00000334  00000-0  15154-3 0  9995
2 27597  98.6920 118.5149 0002006  62.4916 297.6469 14.28380289120631
Epoch (UTC): 19 June 2024 20:09:00
Eccentricity: 0.0002006
inclination: 98.6920°
perigee height: 796 km
apogee height: 798 km
right ascension of ascending node: 118.5149°
argument of perigee: 62.4916°
revolutions per day: 14.28380289
mean anomaly at epoch: 297.6469°
orbit number at epoch: 12063

The dashed part of the orbit path shows where the satellite is in the earth's shadow,  

DLR